ISS DEB (44306 NORAD) Tracking and Keplerian Element Data

This shows tracking and keplerian element data for the satellite.

Feedback or suggestion? Click here.




ElementValue
Catalog44306
NameISS DEB
Epoch Orbit11076
Epoch Day130.88018138
Epoch Year2021
RAAN141.1936
Inclination51.6357
Eccentricity0.0006612
Argument of Perigee96.4527
Mean Anonmoly263.7219
Mean Motion15.59424277
Decay Rate6.378E-05
L11 44306U 98067QD 21130.88018138 .00006378 00000-0 85380-4 0 9993
L22 44306 51.6357 141.1936 0006612 96.4527 263.7219 15.59424277110760

Live tracking and technical data element details for ISS DEB (NORAD 44306). ISS DEB can be tracked NOW for your location showing map with azimuth and elevation plus other details from your city location.

Track the satellite on the map from your city or location and see movement details for azimuth, elevation, latitude, longitude, range, height, and movement on the map or in text.







IsCatalogInMostPopularTable: catalog: 44306, numindb: 25430
Update: records affected: 1



GetName: 44306 ISS DEB

Hit Count: updated at: Tue, 11 May 2021 20:40:23 GMT